SPMKL EPKK-EPKK

Flight info

Callsign SPMKL
Flight time 0h 8m
Altitude 2000
Route EPKK
Aircraft DA40/L-SY/C

Departure

Time 2026-05-05 10:46
Airport Kraków John Paul II International Airport (EPKK)

Arrival

Time 2026-05-05 10:54
Airport Kraków John Paul II International Airport (EPKK)
Time Latitude Longitude Altitude Speed Heading
2026-05-05 10:30 50.07686 19.80020 797 ft 0 kts 347°
2026-05-05 10:40 50.07692 19.80017 797 ft 2 kts 330°
2026-05-05 10:40 50.07725 19.80013 797 ft 5 kts 18°
2026-05-05 10:40 50.07742 19.80076 797 ft 6 kts 84°
2026-05-05 10:41 50.07752 19.80147 797 ft 8 kts 81°
2026-05-05 10:41 50.07764 19.80243 797 ft 9 kts 75°
2026-05-05 10:41 50.07780 19.80329 797 ft 5 kts 45°
2026-05-05 10:41 50.07815 19.80347 797 ft 3 kts 334°
2026-05-05 10:42 50.07839 19.80337 798 ft 0 kts 342°
2026-05-05 10:44 50.07851 19.80330 798 ft 6 kts 349°
2026-05-05 10:44 50.07927 19.80306 798 ft 14 kts 351°
2026-05-05 10:44 50.07998 19.80275 798 ft 6 kts 351°
2026-05-05 10:45 50.08017 19.80238 798 ft 11 kts 257°
2026-05-05 10:45 50.07959 19.79819 807 ft 64 kts 245°
2026-05-05 10:45 50.07879 19.79044 971 ft 75 kts 268°
2026-05-05 10:45 50.07819 19.78215 1103 ft 84 kts 246°
2026-05-05 10:46 50.07724 19.77373 1344 ft 82 kts 251°
2026-05-05 10:46 50.07747 19.76435 1582 ft 89 kts 290°
2026-05-05 10:46 50.08278 19.75993 1807 ft 101 kts 351°
2026-05-05 10:46 50.08935 19.75741 2044 ft 96 kts 343°
2026-05-05 10:47 50.09604 19.75450 2050 ft 103 kts 346°
2026-05-05 10:47 50.10302 19.75190 2073 ft 100 kts 349°
2026-05-05 10:47 50.10996 19.75399 2016 ft 112 kts 39°
2026-05-05 10:47 50.11320 19.76386 1934 ft 103 kts 92°
2026-05-05 10:48 50.11348 19.77472 1840 ft 101 kts 94°
2026-05-05 10:48 50.11387 19.78558 1904 ft 103 kts 91°
2026-05-05 10:48 50.11489 19.79687 2069 ft 104 kts 86°
2026-05-05 10:48 50.11628 19.80808 2045 ft 107 kts 84°
2026-05-05 10:49 50.11845 19.81908 1974 ft 108 kts 76°
2026-05-05 10:49 50.12077 19.83077 1941 ft 117 kts 78°
2026-05-05 10:49 50.12269 19.84217 2021 ft 105 kts 81°
2026-05-05 10:49 50.12367 19.85338 2030 ft 101 kts 91°
2026-05-05 10:50 50.12444 19.86409 1998 ft 97 kts 89°
2026-05-05 10:50 50.12178 19.87231 1979 ft 90 kts 155°
2026-05-05 10:50 50.11568 19.87374 1963 ft 85 kts 181°
2026-05-05 10:50 50.10991 19.87296 1980 ft 84 kts 179°
2026-05-05 10:51 50.10411 19.87283 1981 ft 84 kts 178°
2026-05-05 10:51 50.09874 19.87298 2028 ft 65 kts 176°
2026-05-05 10:51 50.09405 19.87245 1989 ft 71 kts 186°
2026-05-05 10:51 50.09077 19.86553 1845 ft 85 kts 236°
2026-05-05 10:52 50.08880 19.85742 1786 ft 77 kts 237°
2026-05-05 10:52 50.08741 19.84910 1658 ft 74 kts 251°
2026-05-05 10:52 50.08612 19.84152 1502 ft 78 kts 248°
2026-05-05 10:52 50.08481 19.83400 1389 ft 69 kts 250°
2026-05-05 10:53 50.08376 19.82610 1243 ft 78 kts 247°
2026-05-05 10:53 50.08259 19.81889 1156 ft 67 kts 251°
2026-05-05 10:53 50.08160 19.81215 1049 ft 62 kts 250°
2026-05-05 10:53 50.08060 19.80512 935 ft 69 kts 248°
2026-05-05 10:54 50.07948 19.79741 808 ft 71 kts 253°
2026-05-05 10:54 50.07863 19.79116 798 ft 48 kts 253°
2026-05-05 10:54 50.07773 19.78475 834 ft 75 kts 251°
2026-05-05 10:54 50.07679 19.77674 1039 ft 77 kts 253°
2026-05-05 10:55 50.07645 19.76889 1286 ft 77 kts 269°
2026-05-05 10:55 50.07998 19.76252 1526 ft 86 kts 342°
2026-05-05 10:55 50.08612 19.76243 1747 ft 90 kts
2026-05-05 10:55 50.09224 19.76186 1993 ft 91 kts 345°
2026-05-05 10:56 50.09851 19.76217 2103 ft 97 kts 24°
2026-05-05 10:56 50.10164 19.77090 2020 ft 100 kts 86°
2026-05-05 10:56 50.10316 19.78145 2009 ft 95 kts 83°
2026-05-05 10:56 50.10471 19.79121 2017 ft 92 kts 82°
2026-05-05 10:57 50.10601 19.80129 1994 ft 98 kts 84°
2026-05-05 10:57 50.10725 19.81132 1968 ft 92 kts 82°
2026-05-05 10:57 50.10834 19.82175 1937 ft 104 kts 82°
2026-05-05 10:57 50.10994 19.83188 2019 ft 92 kts 82°
2026-05-05 10:58 50.10886 19.84044 2038 ft 83 kts 138°
2026-05-05 10:58 50.10371 19.84240 2015 ft 70 kts 184°
2026-05-05 10:58 50.09906 19.84296 1860 ft 65 kts 175°
2026-05-05 10:58 50.09450 19.84348 1686 ft 65 kts 174°
2026-05-05 10:59 50.08996 19.84314 1559 ft 69 kts 186°
2026-05-05 10:59 50.08611 19.83962 1451 ft 76 kts 226°
2026-05-05 10:59 50.08483 19.83236 1393 ft 69 kts 252°
2026-05-05 10:59 50.08367 19.82509 1282 ft 72 kts 246°
2026-05-05 11:00 50.08247 19.81777 1143 ft 73 kts 247°
2026-05-05 11:00 50.08130 19.80990 1034 ft 70 kts 252°
2026-05-05 11:00 50.08007 19.80155 897 ft 80 kts 255°
2026-05-05 11:00 50.07899 19.79386 801 ft 63 kts 253°
2026-05-05 11:01 50.07817 19.78816 798 ft 57 kts 255°
2026-05-05 11:01 50.07717 19.78056 941 ft 73 kts 251°
2026-05-05 11:01 50.07661 19.77309 1175 ft 73 kts 266°
2026-05-05 11:01 50.07910 19.76631 1403 ft 75 kts 304°
2026-05-05 11:02 50.08357 19.76167 1616 ft 76 kts 311°
2026-05-05 11:02 50.08835 19.75811 1776 ft 80 kts 15°
2026-05-05 11:02 50.09146 19.76523 1876 ft 88 kts 79°
2026-05-05 11:02 50.09372 19.77416 1985 ft 89 kts 70°
2026-05-05 11:03 50.09620 19.78348 2060 ft 100 kts 68°
2026-05-05 11:03 50.09945 19.79308 2155 ft 95 kts 64°
2026-05-05 11:03 50.10321 19.80141 2100 ft 93 kts 57°
2026-05-05 11:03 50.10721 19.80922 2022 ft 92 kts 58°
2026-05-05 11:04 50.11092 19.81687 2041 ft 85 kts 65°
2026-05-05 11:04 50.11353 19.82521 2053 ft 87 kts 84°
2026-05-05 11:04 50.11120 19.83261 2007 ft 72 kts 146°
2026-05-05 11:04 50.10643 19.83449 1921 ft 76 kts 171°
2026-05-05 11:05 50.10106 19.83611 1901 ft 78 kts 172°
2026-05-05 11:05 50.09621 19.83711 1785 ft 70 kts 171°
2026-05-05 11:05 50.09151 19.83760 1632 ft 67 kts 175°
2026-05-05 11:05 50.08726 19.83630 1543 ft 65 kts 200°
2026-05-05 11:06 50.08453 19.83025 1383 ft 74 kts 245°
2026-05-05 11:06 50.08318 19.82233 1236 ft 74 kts 245°
2026-05-05 11:06 50.08201 19.81450 1097 ft 70 kts 250°
2026-05-05 11:06 50.08096 19.80736 966 ft 73 kts 251°
2026-05-05 11:07 50.07982 19.79988 856 ft 70 kts 252°
2026-05-05 11:07 50.07886 19.79290 798 ft 60 kts 254°
2026-05-05 11:07 50.07786 19.78511 962 ft 73 kts 253°
2026-05-05 11:07 50.07732 19.77759 1196 ft 72 kts 257°
2026-05-05 11:08 50.07713 19.77029 1461 ft 72 kts 277°
2026-05-05 11:08 50.08178 19.76580 1639 ft 93 kts 358°
2026-05-05 11:08 50.08835 19.76356 1854 ft 97 kts 342°
2026-05-05 11:08 50.09488 19.76150 2056 ft 103 kts 346°
2026-05-05 11:09 50.10201 19.75998 2096 ft 107 kts
2026-05-05 11:09 50.10640 19.76767 2056 ft 94 kts 88°
2026-05-05 11:09 50.10712 19.77808 1977 ft 94 kts 88°
2026-05-05 11:09 50.10820 19.78835 1944 ft 94 kts 88°
2026-05-05 11:10 50.10938 19.79797 1924 ft 89 kts 86°
2026-05-05 11:10 50.11063 19.80757 1886 ft 92 kts 81°
2026-05-05 11:10 50.11211 19.81672 1922 ft 89 kts 84°
2026-05-05 11:10 50.11308 19.82612 2000 ft 90 kts 96°
2026-05-05 11:11 50.10947 19.83342 2009 ft 88 kts 153°
2026-05-05 11:11 50.10397 19.83562 1940 ft 75 kts 172°
2026-05-05 11:11 50.09905 19.83668 1824 ft 70 kts 176°
2026-05-05 11:11 50.09444 19.83709 1715 ft 62 kts 176°
2026-05-05 11:12 50.09022 19.83653 1571 ft 61 kts 200°
2026-05-05 11:12 50.08597 19.83396 1419 ft 74 kts 225°
2026-05-05 11:12 50.08399 19.82709 1293 ft 66 kts 249°
2026-05-05 11:12 50.08284 19.81996 1182 ft 75 kts 247°
2026-05-05 11:13 50.08173 19.81265 1091 ft 66 kts 251°
2026-05-05 11:13 50.08061 19.80500 941 ft 74 kts 252°
2026-05-05 11:13 50.07949 19.79748 810 ft 68 kts 252°
2026-05-05 11:13 50.07863 19.79132 798 ft 53 kts 257°
2026-05-05 11:14 50.07762 19.78385 922 ft 74 kts 252°
2026-05-05 11:14 50.07704 19.77584 1149 ft 74 kts 256°
2026-05-05 11:14 50.07731 19.76759 1378 ft 83 kts 290°
2026-05-05 11:14 50.08263 19.76291 1559 ft 96 kts 339°
2026-05-05 11:15 50.08868 19.75955 1844 ft 92 kts 326°
2026-05-05 11:15 50.09468 19.75614 2095 ft 91 kts 326°
2026-05-05 11:15 50.10041 19.75221 2197 ft 90 kts 332°
2026-05-05 11:15 50.10670 19.74874 2179 ft 91 kts 348°
2026-05-05 11:16 50.11098 19.75464 2004 ft 92 kts 84°
2026-05-05 11:16 50.11458 19.76266 1963 ft 94 kts 32°
2026-05-05 11:16 50.12040 19.76729 2003 ft 94 kts 29°
2026-05-05 11:16 50.12669 19.76939 2029 ft 94 kts 333°
2026-05-05 11:17 50.13111 19.76231 2028 ft 97 kts 271°
2026-05-05 11:17 50.12864 19.75346 1996 ft 91 kts 213°
2026-05-05 11:17 50.12313 19.75123 1954 ft 80 kts 189°
2026-05-05 11:17 50.11774 19.74933 1949 ft 82 kts 197°
2026-05-05 11:18 50.11204 19.74788 1974 ft 83 kts 167°
2026-05-05 11:18 50.10717 19.75286 1993 ft 92 kts 127°
2026-05-05 11:18 50.10640 19.76343 2010 ft 103 kts 90°
2026-05-05 11:18 50.10744 19.77390 2005 ft 96 kts 84°
2026-05-05 11:19 50.10840 19.78491 2008 ft 105 kts 88°
2026-05-05 11:19 50.10949 19.79521 1996 ft 96 kts 88°
2026-05-05 11:19 50.11061 19.80561 1976 ft 104 kts 86°
2026-05-05 11:19 50.11266 19.81670 2001 ft 99 kts 74°
2026-05-05 11:20 50.11406 19.82677 1982 ft 92 kts 116°
2026-05-05 11:20 50.10903 19.82993 1947 ft 88 kts 178°
2026-05-05 11:20 50.10331 19.83272 1927 ft 71 kts 162°
2026-05-05 11:20 50.09930 19.83478 1852 ft 66 kts 171°
2026-05-05 11:21 50.09481 19.83617 1710 ft 65 kts 174°
2026-05-05 11:21 50.09049 19.83719 1615 ft 64 kts 174°
2026-05-05 11:21 50.08629 19.83533 1488 ft 72 kts 216°
2026-05-05 11:21 50.08447 19.82861 1349 ft 71 kts 249°
2026-05-05 11:22 50.08316 19.82154 1219 ft 67 kts 245°
2026-05-05 11:22 50.08202 19.81455 1091 ft 63 kts 250°
2026-05-05 11:22 50.08102 19.80744 979 ft 70 kts 248°
2026-05-05 11:22 50.07984 19.80000 865 ft 77 kts 250°
2026-05-05 11:23 50.07883 19.79266 800 ft 60 kts 253°
2026-05-05 11:23 50.07793 19.78648 802 ft 72 kts 257°
2026-05-05 11:23 50.07709 19.77867 1021 ft 74 kts 249°
2026-05-05 11:23 50.07639 19.77106 1266 ft 72 kts 253°
2026-05-05 11:24 50.07854 19.76395 1459 ft 92 kts 326°
2026-05-05 11:24 50.08535 19.76138 1626 ft 102 kts 345°
2026-05-05 11:24 50.09204 19.75883 1921 ft 97 kts 339°
2026-05-05 11:24 50.09867 19.75613 2092 ft 103 kts 341°
2026-05-05 11:25 50.10590 19.75564 2099 ft 107 kts 20°
2026-05-05 11:25 50.10954 19.76428 2079 ft 96 kts 94°
2026-05-05 11:25 50.10897 19.77524 1970 ft 99 kts 105°
2026-05-05 11:25 50.10684 19.78299 1980 ft 65 kts 155°
2026-05-05 11:26 50.10262 19.78588 1837 ft 65 kts 165°
2026-05-05 11:26 50.09848 19.78810 1713 ft 63 kts 166°
2026-05-05 11:26 50.09430 19.79021 1579 ft 63 kts 167°
2026-05-05 11:26 50.09000 19.79208 1470 ft 60 kts 168°
2026-05-05 11:27 50.08570 19.79421 1289 ft 68 kts 161°
2026-05-05 11:27 50.08121 19.79545 1167 ft 64 kts 193°
2026-05-05 11:27 50.07862 19.78982 1003 ft 69 kts 248°
2026-05-05 11:27 50.07749 19.78270 839 ft 66 kts 250°
2026-05-05 11:28 50.07647 19.77575 851 ft 74 kts 248°
2026-05-05 11:28 50.07574 19.76764 1110 ft 74 kts 258°
2026-05-05 11:28 50.07710 19.75998 1351 ft 84 kts 319°
2026-05-05 11:28 50.08311 19.75929 1578 ft 91 kts 352°
2026-05-05 11:29 50.08924 19.75778 1839 ft 92 kts 341°
2026-05-05 11:29 50.09565 19.75541 2037 ft 101 kts 344°
2026-05-05 11:29 50.10222 19.75901 2028 ft 105 kts 62°
2026-05-05 11:29 50.10408 19.77011 1961 ft 104 kts 87°
2026-05-05 11:30 50.10536 19.78126 1957 ft 103 kts 85°
2026-05-05 11:30 50.10679 19.79224 1927 ft 106 kts 88°
2026-05-05 11:30 50.10753 19.80301 1999 ft 99 kts 90°
2026-05-05 11:30 50.10817 19.81392 1964 ft 100 kts 98°
2026-05-05 11:31 50.10619 19.82352 1976 ft 91 kts 130°
2026-05-05 11:31 50.10144 19.82833 1943 ft 70 kts 156°
2026-05-05 11:31 50.09719 19.83007 1803 ft 63 kts 168°
2026-05-05 11:31 50.09297 19.83074 1648 ft 61 kts 178°
2026-05-05 11:32 50.08887 19.83087 1494 ft 66 kts 181°
2026-05-05 11:32 50.08483 19.82872 1366 ft 61 kts 232°
2026-05-05 11:32 50.08358 19.82247 1229 ft 63 kts 246°
2026-05-05 11:32 50.08235 19.81607 1122 ft 63 kts 247°
2026-05-05 11:33 50.08127 19.80909 1023 ft 65 kts 249°
2026-05-05 11:33 50.08020 19.80215 870 ft 67 kts 252°
2026-05-05 11:33 50.07923 19.79546 799 ft 54 kts 258°
2026-05-05 11:33 50.07863 19.79147 798 ft 14 kts 262°
2026-05-05 11:34 50.07806 19.79071 798 ft 8 kts 173°
2026-05-05 11:34 50.07760 19.79087 798 ft 7 kts 173°
2026-05-05 11:34 50.07706 19.79104 798 ft 6 kts 169°
2026-05-05 11:34 50.07678 19.79115 798 ft 2 kts 171°
2026-05-05 11:35 50.07664 19.79120 798 ft 2 kts 167°
2026-05-05 11:35 50.07637 19.79128 798 ft 5 kts 165°
2026-05-05 11:35 50.07618 19.79155 798 ft 3 kts 124°
2026-05-05 11:35 50.07619 19.79195 798 ft 4 kts 77°
2026-05-05 11:36 50.07629 19.79271 798 ft 10 kts 82°
2026-05-05 11:36 50.07647 19.79390 798 ft 10 kts 70°
2026-05-05 11:36 50.07657 19.79470 798 ft 5 kts 87°
2026-05-05 11:36 50.07668 19.79541 798 ft 8 kts 80°
2026-05-05 11:37 50.07680 19.79626 798 ft 6 kts 75°
2026-05-05 11:37 50.07694 19.79725 798 ft 11 kts 78°
2026-05-05 11:37 50.07706 19.79817 798 ft 6 kts 77°
2026-05-05 11:37 50.07697 19.79869 798 ft 7 kts 177°
2026-05-05 11:38 50.07659 19.79879 798 ft 6 kts 165°
2026-05-05 11:38 50.07619 19.79892 798 ft 6 kts 144°
2026-05-05 11:38 50.07608 19.79954 798 ft 6 kts 80°
2026-05-05 11:38 50.07619 19.80037 798 ft 8 kts 83°
2026-05-05 11:39 50.07626 19.80087 798 ft 3 kts 84°
2026-05-05 11:39 50.07634 19.80094 797 ft 2 kts 345°
2026-05-05 11:39 50.07659 19.80085 798 ft 3 kts 349°
2026-05-05 11:39 50.07693 19.80074 798 ft 3 kts 346°
2026-05-05 11:40 50.07695 19.80074 798 ft 0 kts 351°